2021-033D (48251 NORAD) Tracking and Keplerian Element Data

This shows tracking and keplerian element data for the satellite.

Feedback or suggestion? Click here.




ElementValue
Catalog48251
Name2021-033D
Epoch Orbit456
Epoch Day147.25889602
Epoch Year2021
RAAN222.5859
Inclination97.3964
Eccentricity0.0012387
Argument of Perigee161.0095
Mean Anonmoly283.6363
Mean Motion15.21317207
Decay Rate1.99E-05
L11 48251U 21033D 21147.25889602 .00001990 00000-0 91880-4 0 9993
L22 48251 97.3964 222.5859 0012387 161.0095 283.6363 15.21317207 4561

Live tracking and technical data element details for 2021-033D (NORAD 48251). 2021-033D can be tracked NOW for your location showing map with azimuth and elevation plus other details from your city location.

Track the satellite on the map from your city or location and see movement details for azimuth, elevation, latitude, longitude, range, height, and movement on the map or in text.







IsCatalogInMostPopularTable: catalog: 48251, numindb: 20
Update: records affected: 1



GetName: 48251 2021-033D

Hit Count: updated at: Mon, 21 Jun 2021 04:13:49 GMT